Regional Weather Roundup
Issued by NWS

Home | Current Version | Previous Version | Text Only | Print | Product List | Glossary Off
Versions: 1 2 3 4 5 6 7 8 9 10 11 12 13 14 15 16 17 18 19 20 21 22 23 24 25 26 27 28 29 30 31 32 33 34 35 36 37 38 39 40 41 42 43 44 45 46 47 48 49 50

000
ASUS43 KFSD 010402
RWRSD

WEATHER ROUNDUP FOR SOUTH DAKOTA
NATIONAL WEATHER SERVICE SIOUX FALLS SD
1100 PM CDT TUE SEP 30 2014

NOTE: "FAIR" INDICATES FEW OR NO CLOUDS BELOW 12,000 FEET WITH NO
SIGNIFICANT WEATHER AND/OR OBSTRUCTIONS TO VISIBILITY.


SDZ001>005-009-010-012>017-010500-
NORTHWEST AND NORTH CENTRAL SOUTH DAKOTA

CITY           SKY/WX    TMP DP  RH WIND       PRES   REMARKS
BUFFALO          N/A     54  51  90 W14       29.56R
FAITH            N/A     57  50  77 W14       29.61R
MOBRIDGE       MOCLDY    60  52  74 W15       29.52R
$$

SDZ012>016-024>037-041>051-057-063-072>074-010500-
SOUTHWEST AND SOUTH CENTRAL SOUTH DAKOTA

CITY           SKY/WX    TMP DP  RH WIND       PRES   REMARKS
RAPID CTY ARPT MOCLDY    53  45  74 NW3       29.70R
PIERRE         PTCLDY    55  48  77 S6        29.63R
CUSTER         CLOUDY    47  40  76 W7        29.78R
ELLSWORTH AFB  MOCLDY    53  45  73 W6        29.70R
PHILIP         PTCLDY    55  47  74 W6        29.66R
PINE RIDGE     MOCLDY    52  49  89 SW5       29.73R
WINNER         MOCLDY    65  46  50 SW7       29.68R
$$

SDZ004>011-016>023-039-040-010500-
NORTHEAST SOUTH DAKOTA

CITY           SKY/WX    TMP DP  RH WIND       PRES   REMARKS
ABERDEEN       MOCLDY    64  53  67 S13       29.59R
WATERTOWN      PTCLDY    62  59  90 S22G33    29.68R
SISSETON         N/A     60  58  92 S15       29.63S
$$

SDZ017-020-022-023-036>040-048>070-010500-
SOUTHEAST SOUTH DAKOTA

CITY           SKY/WX    TMP DP  RH WIND       PRES   REMARKS
SIOUX FALLS    CLOUDY    63  59  87 S16G23    29.76S
HURON          PTCLDY    63  51  65 S10       29.67R
CHAMBERLAIN    PTCLDY    54  49  84 CALM      29.67R
MITCHELL       CLOUDY    64  61  90 S10       29.71R
YANKTON        CLOUDY    64  61  88 SE10      29.74S
$$

ABBREVIATIONS USED IN REMARKS
   TC - TEMPERATURE IN CELSIUS
  WCI - WIND CHILL INDEX
   HX - HEAT INDEX
  VSB - VISIBILITY



USA.gov is the U.S. government's official web portal to all federal, state and local government web resources and services.